www.pogodaiklimat.ru

Погода и климат >> Архив погоды >> Чехия >> Коцеловице


ПОГОДА в Коцеловице

  • Прогноз погоды в Коцеловице
  • Монитор погоды в Коцеловице

АРХИВ ПОГОДЫ в Коцеловице

Время (UTC), дата Ветер
(напр.,м/с)
 
Видим.   Явления Облачность Т
(С)
Тd
(С)
f
(%)
Тe
(С)
Тes
(С)
Комфортность P
(гПа)
Po
(гПа)
Тmin
(С)
Tmax
(С)
R
(мм)
R24
(мм)
S
(см)
16 13.09 З 4 65 км 8/8 1080 м
[Sc diur, vesp Ac lent Ci fib]
+20.2 +14.0 68 +23 +23 комфорт 1029.6 969.4
17 13.09 З 3 65 км 8/5 1050 м
[Sc diur, vesp Ac lent Ci fib]
+19.5 +14.0 71 +21 +21 комфорт 1029.7 969.4
18 13.09 З 3 60 км 8/3 1050 м
[Sc diur, vesp Ac As Ci fib]
+18.6 +13.9 74 +19 +19 1030.2 969.7 +21.7
19 13.09 СЗ 2 55 км 8/1 1050 м
[Sc diur, vesp Ac As Ci fib]
+17.9 +14.0 78 +18 +18 1030.9 970.2
20 13.09 СЗ 2 55 км 3/0
[Ac trans Ci fib]
+17.0 +13.8 81 +17 +17 1031.0 970.1
21 13.09 нст 1 35 км н/о +16.0 +13.8 87 +17 +17 1031.5 970.4
22 13.09 СЗ 2 22 км н/о +15.5 +13.7 89 +15 +15 1031.9 970.6
23 13.09 СВ 2 28 км н/о +14.4 +13.3 93 +14 +14 1032.2 970.7
00 14.09 СВ 3 28 км {дымка} н/о +14.8 +12.9 88 +14 +14 1032.1 970.7
01 14.09 СВ 5 35 км н/о +15.0 +12.9 87 +14 +14 1032.2 970.8
02 14.09 СВ 3 35 км н/о +14.3 +12.7 90 +13 +13 1032.4 970.8
03 14.09 В 2 35 км н/о +14.1 +11.6 85 +14 +14 1032.5 970.9
04 14.09 СВ 2 35 км н/о +13.9 +11.5 85 +13 +13 1032.8 971.1
05 14.09 СВ 2 35 км н/о +13.1 +11.2 88 +12 +12 1033.1 971.2
06 14.09 В 2 40 км 9/9 1080 м
[Sc]
+13.7 +11.5 87 +13 +13 1033.5 971.7 +12.9
07 14.09 В 3 40 км 9/9 330 м
[Cu Sc]
+14.1 +11.5 84 +13 +13 1033.9 972.2
08 14.09 В 3 40 км 9/6 480 м
[Cu Sc Cs]
+15.4 +10.8 74 +15 +16 1033.4 972.0
09 14.09 В 3 40 км 9/6 660 м
[Cu Sc Cs]
+16.4 +10.5 68 +16 +18 1032.7 971.5
10 14.09 В 4 45 км 9/9 800 м
[Sc diur, vesp]
+16.6 +10.3 66 +16 +17 1032.5 971.4
11 14.09 СВ 4 40 км 9/9 840 м
[Sc]
+16.6 +10.1 65 +16 +17 1032.4 971.3
12 14.09 В 4 40 км 8/6 1020 м
[Sc Ci fib]
+17.3 +10.3 63 +17 +19 1031.6 970.7
13 14.09 В 3 40 км 9/8 1020 м
[Sc Ci fib]
+17.8 +10.4 62 +18 +19 1031.1 970.3
14 14.09 В 4 40 км 8/8 1080 м
[Sc Ci fib]
+17.9 +10.1 60 +18 +18 1030.6 969.8
15 14.09 нст 2 45 км 8/8 1200 м
[Sc]
+18.0 +10.0 59 +19 +19 1029.7 969.0
16 14.09 СВ 4 40 км 6/4 1080 м
[Sc Ci sp]
+17.8 +9.5 58 +18 +18 1029.4 968.7
17 14.09 СВ 3 40 км 5/3 1080 м
[Sc Ci sp]
+16.1 +9.7 66 +16 +16 1029.9 968.8
18 14.09 СВ 3 40 км 4/1 1000 м
[Sc Ci sp]
+14.4 +9.6 73 +14 +14 1030.4 968.9 +18.7
19 14.09 СВ 3 45 км 6/1 1000 м
[Sc Ci sp]
+13.3 +9.2 76 +12 +12 1030.7 969.0
20 14.09 СВ 2 45 км 9/6 1350 м
[Sc Ci sp]
+13.0 +9.2 78 +12 +12 1030.8 969.0
21 14.09 нст 1 35 км н/о +11.8 +9.5 86 +12 +12 1030.9 968.8
22 14.09 В 1 30 км н/о +10.9 +8.9 87 +11 +11 1030.6 968.4
23 14.09 ЮВ 1 30 км н/о +10.5 +9.3 92 +10 +10 1030.2 967.9
00 15.09 СВ 3 19 км н/о +8.8 +8.4 97 +6 +6 1030.2 967.5
01 15.09 СВ 2 21 км н/о +9.2 +8.5 95 +7 +7 1029.4 966.9
02 15.09 СВ 1 17 км н/о +8.8 +8.3 97 +8 +8 1029.1 966.5
03 15.09 нст 1 15 км {дымка} н/о +8.9 +8.1 95 +8 +8 1028.8 966.2
04 15.09 С 1 14 км н/о +8.4 +8.0 97 +7 +7 1028.2 965.6
05 15.09 СВ 2 2000 м в посл. час туман {дымка} н/о +7.4 +7.3 99 +5 +5 1028.3 965.4
06 15.09 В 2 1900 м туман на расстоянии 3/1 600 м
[Sc Ci fib]
+8.8 +8.2 96 +7 +7 1027.8 965.3 +7.0
07 15.09 4300 м туман на расстоянии 3/1 800 м
[Sc Ci fib]
+12.5 +10.4 87 1026.8 965.2
08 15.09 30 км 6/1 870 м
[Sc Ci]
+14.2 +11.0 81 1026.2 965.0
09 15.09 нст 2 45 км 6/1 750 м
[Cu hum Ci fib]
+16.7 +12.3 75 +17 +23 1025.4 964.7
10 15.09 45 км 6/3 800 м
[Cu hum Ci fib]
+20.6 +13.4 63 1024.1 964.3
11 15.09 З 5 55 км 4/3 930 м
[Sc diur, vesp Ci fib]
+21.5 +12.8 58 +24 +27 комфорт 1022.8 963.3
12 15.09 З 5 60 км 4/1 1080 м
[Sc diur, vesp Ci fib]
+22.5 +12.8 54 +25 +29 комфорт 1022.0 962.7
13 15.09 З 5 65 км 4/1 1200 м
[Sc diur, vesp Ci fib]
+23.5 +12.3 49 +25 +29 комфорт 1021.0 961.9
14 15.09 З 5 70 км 5/0
[Ci fib]
+23.7 +11.5 46 +25 +28 комфорт 1020.3 961.3
15 15.09 З 6 70 км 6/0
[Ci]
+23.7 +10.8 44 +25 +26 комфорт 1019.7 960.7
16 15.09 З 4 70 км 8/0
[Ci]
+23.0 +11.9 50 +26 +26 жарко 1019.6 960.5
17 15.09 З 3 >70 км 9/0
[Ci]
+21.4 +12.8 58 +24 +24 комфорт 1019.8 960.4
18 15.09 З 4 >70 км 9/0
[Ci fib]
+19.8 +12.9 64 +22 +22 комфорт 1020.0 960.3 +24.3
19 15.09 З 3 >70 км 8/0
[Ci fib]
+18.8 +12.6 67 +20 +20 1020.2 960.3
20 15.09 70 км 8/0
[Ci fib]
+17.0 +12.5 75 1020.8 960.5
21 15.09 З 2 35 км н/о +16.2 +12.3 78 +16 +16 1020.9 960.4
22 15.09 СЗ 1 35 км н/о +15.1 +12.3 83 +16 +16 1020.8 960.1
23 15.09 СЗ 2 35 км н/о +15.3 +12.4 83 +15 +15 1020.8 960.1
00 16.09 С 1 30 км н/о +14.4 +12.2 87 +15 +15 1020.9 960.0
01 16.09 СЗ 2 35 км н/о +14.7 +12.5 87 +14 +14 1020.8 960.0
02 16.09 СЗ 2 30 км н/о +13.3 +11.8 91 +13 +13 1020.8 959.7
03 16.09 СЗ 3 35 км н/о +13.3 +11.0 86 +12 +12 1020.4 959.3
04 16.09 СЗ 2 35 км н/о +13.2 +10.5 84 +12 +12 1020.4 959.3
05 16.09 З 2 35 км н/о +12.3 +9.9 85 +11 +11 1020.8 959.5
06 16.09 ЮЗ 1 60 км 8/0
[Ac trans Ci sp]
+12.7 +10.2 85 +13 +13 1020.6 959.4 +12.0
07 16.09 З 2 65 км 8/0
[Ci fib]
+14.0 +10.9 82 +13 +15 1020.7 959.7
08 16.09 З 3 65 км 9/0
[Cs]
+17.7 +9.6 59 +18 +21 1020.1 959.9
09 16.09 З 3 65 км 9/1 1020 м
[Cu hum Ac As Cs]
+17.5 +9.0 57 +18 +21 1019.9 959.7
10 16.09 З 3 60 км 9/1 1140 м
[Cu hum Ac As Cs]
+18.3 +8.8 54 +19 +22 1019.2 959.2
11 16.09 З 4 60 км осадки на расстоянии 9/1 1410 м
[Cu hum Ac As Ci sp]
+20.7 +8.9 47 +22 +26 комфорт 1018.0 958.5
12 16.09 З 5 65 км осадки на расстоянии 9/1 1410 м
[Cu hum Ac As]
+21.1 +10.4 50 +23 +24 комфорт 1017.1 957.8
13 16.09 З 7-12
{11}
65 км 9/0
[Ac As]
+21.6 +10.0 48 +23 +24 комфорт 1016.5 957.3
14 16.09 З 7 65 км осадки на расстоянии 9/0
[Ac As]
+21.5 +6.3 37 +22 +23 комфорт 1016.3 957.0
15 16.09 З 5
{12}
65 км осадки на расстоянии 9/0
[Ac As]
+20.9 +7.6 42 +22 +23 комфорт 1016.2 956.8
16 16.09 З 4 65 км осадки на расстоянии 9/0
[Ac As]
+20.2 +8.5 47 +21 +22 комфорт 1016.2 956.7
17 16.09 З 3 65 км осадки на расстоянии 10/1 1500 м
[Sc Ac As]
+19.3 +9.0 51 +20 +20 1016.3 956.6
18 16.09 З 4
{12}
50 км 10/1 1500 м
[Sc Ac As]
+18.7 +8.8 53 +19 +19 1016.4 956.6 +23.0
19 16.09 З 4 40 км 10/3 1500 м
[Sc Ac As]
+18.0 +9.6 58 +18 +18 1016.8 956.9
20 16.09 З 2 30 км слаб. дождь 10/8 1500 м
[Sc As op]
+17.5 +10.0 61 +18 +18 1016.9 956.9
21 16.09 З 3 35 км слаб. дождь {морось} н/о +16.2 +11.1 72 +16 +16 1017.1 956.8
22 16.09 З 3 35 км слаб. ливневой дождь н/о +15.1 +12.0 82 +14 +14 1016.8 956.3
23 16.09 СЗ 2 35 км слаб. ливневой дождь н/о +15.0 +11.7 81 +15 +15 1016.5 956.0
00 17.09 З 2 35 км слаб. ливневой дождь {морось} н/о +14.6 +12.3 86 +14 +14 1016.8 956.2 0.4
01 17.09 З 3 9000 м слаб. ливневой дождь н/о +13.8 +13.1 96 +13 +13 1016.8 956.1
02 17.09 З 2 4500 м слаб. ливневой дождь н/о +13.6 +13.5 99 +13 +13 1017.0 956.2
03 17.09 С 1 9000 м слаб. ливневой дождь н/о +13.3 +13.0 98 +13 +13 1016.9 956.1
04 17.09 С 2 22 км слаб. ливневой дождь н/о +12.3 +11.6 95 +11 +11 1017.3 956.2
05 17.09 С 2 35 км {ливн. осадки} н/о +12.1 +11.1 94 +11 +11 1017.6 956.4
06 17.09 нст 1 12 км 10/10 150 м
[Sc]
+12.1 +11.2 94 +12 +12 1017.9 956.7 +12.0 1
07 17.09 СВ 2 14 км осадки на расстоянии 10/10 180 м
[Sc]
+12.1 +10.5 90 +11 +11 1018.1 956.9
08 17.09 СВ 4 3600 м дождь {морось} 10/10 180 м
[Sc]
+10.5 +10.0 97 +8 +8 1019.0 957.4
09 17.09 нст 2 9000 м в посл. час морось 9/9 180 м
[Sc]
+11.1 +10.4 95 +10 +10 1018.6 957.2
10 17.09 З 3 17 км 10/10 180 м
[Sc]
+12.1 +10.1 88 +10 +10 1018.3 957.1
11 17.09 З 6 30 км 8/5 480 м
[Cu med, cong Ci fib]
+13.2 +9.3 77 +11 +13 1017.3 956.4
12 17.09 З 7
{11}
40 км {морось} 5/3 900 м
[Cu med, cong Ci fib]
+15.8 +7.7 59 +14 +16 1016.1 955.7 0.2
13 17.09 З 6
{13}
60 км 6/1 1140 м
[Cu hum Ci fib]
+17.4 +7.5 52 +17 +19 1015.1 955.1
14 17.09 З 8
{13}
65 км 6/1 1350 м
[Cu hum Ci fib]
+17.3 +5.2 45 +16 +17 1014.7 954.7
15 17.09 З 8
{14}
70 км 8/1 1440 м
[Cu hum Ci fib]
+17.5 +5.3 45 +16 +17 1014.6 954.6
16 17.09 З 8-13
{15}
>70 км 8/3 1500 м
[Sc diur, vesp Ci fib]
+16.8 +5.7 48 +16 +16 1014.8 954.7
17 17.09 З 6
{12}
70 км 9/5 1500 м
[Sc diur, vesp Ci fib]
+15.9 +7.0 55 +15 +15 1015.2 954.9
18 17.09 СЗ 2
{15}
70 км 9/5 1500 м
[Sc diur, vesp Ci fib]
+14.7 +5.4 54 +15 +15 1016.3 955.7 +17.9 0.2
19 17.09 З 3 65 км 9/6 1500 м
[Sc diur, vesp Ci fib]
+13.6 +6.2 61 +13 +13 1017.2 956.3
20 17.09 З 4 55 км 8/1 1500 м
[Sc diur, vesp Ac lent Ci fib]
+12.7 +6.1 64 +11 +11 1018.1 957.0
21 17.09 СЗ 4 35 км н/о +12.1 +5.2 63 +10 +10 1019.0 957.7
22 17.09 СЗ 4 35 км н/о +11.0 +4.2 63 +9 +9 1019.8 958.2
23 17.09 СЗ 4 35 км н/о +9.9 +3.3 63 +7 +7 1020.9 959.0
00 18.09 З 3 35 км н/о +8.4 +3.9 73 +6 +6 1021.8 959.5
01 18.09 З 3 35 км н/о +7.6 +4.0 78 +5 +5 1022.2 959.7
02 18.09 СЗ 4 35 км н/о +7.7 +3.1 73 +5 +5 1022.6 960.1
03 18.09 З 4 35 км н/о +6.7 +3.0 77 +3 +3 1023.4 960.6
04 18.09 З 4 35 км н/о +7.1 +3.2 76 +4 +4 1023.5 960.8
05 18.09 З 3 35 км н/о +6.7 +3.3 79 +4 +4 1024.3 961.5
06 18.09 З 3 55 км 1/1 450 м
[Cu Sc Ci fib]
+7.5 +3.3 75 +5 +5 1024.6 961.9 +6.6
07 18.09 З 4 65 км 1/1 600 м
[Cu hum Ci fib]
+8.7 +3.6 70 +6 +7 1024.8 962.4
08 18.09 З 4 70 км 3/3 800 м
[Cu hum Ci fib]
+9.6 +2.8 63 +7 +9 1025.2 962.9
09 18.09 З 4 70 км 4/3 930 м
[Cu hum Ci fib]
+10.3 +2.7 59 +8 +11 1025.2 963.1
10 18.09 СЗ 4 70 км 4/4 1050 м
[Cu hum Ci fib]
+11.3 +2.2 53 +9 +13 1025.1 963.2
11 18.09 СЗ 3 70 км 4/3 1200 м
[Cu hum Ci fib]
+12.2 +2.4 51 +11 +16 1024.8 963.1
12 18.09 З 4 70 км 4/4 1260 м
[Cu hum Ci fib]
+12.2 +2.0 50 +11 +14 1024.4 962.7
13 18.09 З 5 70 км 4/4 1350 м
[Cu hum Ci fib]
+13.6 +1.2 43 +12 +14 1023.8 962.4
14 18.09 З 4 >70 км 4/4 1500 м
[Cu med, cong Ci fib]
+14.2 +2.2 44 +13 +15 1023.2 962.0
15 18.09 СЗ 2 >70 км 4/3 1500 м
[Sc diur, vesp Ci fib]
+13.2 +2.2 47 +13 +15 1023.3 961.9
16 18.09 С 3 >70 км 4/4 1500 м
[Sc diur, vesp Ci fib]
+13.8 +2.6 47 +13 +13 1023.0 961.7
17 18.09 СЗ 2 >70 км 3/1 1500 м
[Sc diur, vesp Ci fib]
+11.7 +1.3 49 +11 +11 1023.8 962.0
18 18.09 СЗ 2 >70 км 1/1 1500 м
[Sc diur, vesp]
+9.8 +2.3 60 +9 +9 1024.6 962.4 +14.9
19 18.09 СЗ 2 70 км 1/1 1500 м
[Sc diur, vesp]
+8.8 +2.0 62 +7 +7 1025.4 962.9
20 18.09 65 км 1/1 1500 м
[Sc diur, vesp]
+8.2 +2.0 65 1025.9 963.3
21 18.09 СЗ 2 35 км н/о +7.6 +1.8 67 +6 +6 1026.2 963.4
22 18.09 СЗ 2 35 км н/о +5.8 +2.9 82 +3 +3 1026.7 963.5
23 18.09 З 2 35 км н/о +5.7 +3.1 83 +3 +3 1026.8 963.6
00 19.09 З 1 35 км н/о +6.0 +2.6 79 +5 +5 1027.0 963.8
01 19.09 З 3 35 км н/о +5.7 +2.9 82 +2 +2 1027.1 963.9
02 19.09 СЗ 1 35 км н/о +5.3 +3.0 85 +4 +4 1027.2 963.9
03 19.09 З 2 н/о н/о +4.7 +2.5 86 +2 +2 1027.6 964.1
04 19.09 СЗ 2 30 км н/о +4.8 +2.7 86 +2 +2 1027.6 964.1
05 19.09 З 2 30 км н/о +4.5 +2.4 86 +2 +2 1028.2 964.6
06 19.09 З 2 25 км 5/0
[Ci fib]
+5.0 +3.2 88 +2 +3 1028.6 965.1 +4.0
07 19.09 З 3 30 км 5/1 480 м
[Cu hum Ac lent Ci fib]
+7.3 +3.7 78 +5 +6 1028.8 965.8
08 19.09 З 4 35 км 6/1 720 м
[Cu hum Ci]
+9.1 +2.8 65 +6 +9 1028.7 966.1
09 19.09 З 3 45 км 6/5 930 м
[Cu hum Ci fib]
+9.9 +2.2 59 +8 +11 1028.7 966.3
10 19.09 45 км 6/6 1200 м
[Sc diur, vesp Ci fib]
+10.6 +1.8 54 1028.6 966.3
11 19.09 55 км 6/5 1300 м
[Sc diur, vesp Ci fib]
+11.8 +1.0 47 1028.2 966.2
12 19.09 нст 2 65 км 8/6 1300 м
[Sc diur, vesp Ci fib]
+11.9 +0.8 46 +11 +14 1028.1 966.1
13 19.09 С 3 65 км 9/5 1380 м
[Sc diur, vesp Cs]
+12.2 +0.6 45 +11 +14 1028.0 966.1
14 19.09 С 3 65 км 9/5 1500 м
[Sc diur, vesp Cs]
+11.7 +0.4 46 +10 +12 1028.2 966.2
15 19.09 нст 2 >70 км 9/5 1500 м
[Sc Cs]
+11.8 +0.4 45 +11 +12 1028.3 966.3
16 19.09 С 3 >70 км 9/4 1500 м
[Sc Cs]
+11.5 +0.9 48 +10 +10 1028.2 966.1
17 19.09 С 2 >70 км 9/1 1500 м
[Sc Cs]
+10.7 +1.2 52 +10 +10 1028.4 966.1
18 19.09 С 3 >70 км 9/1 1200 м
[Sc Cs]
+9.8 +1.4 56 +8 +8 1029.4 966.9 +13.2
19 19.09 С 2 70 км 8/0
[Cs]
+9.2 +1.1 57 +8 +8 1029.6 967.0
20 19.09 З 2 65 км 8/0
[Ci fib]
+6.9 +2.4 73 +5 +5 1030.7 967.5
21 19.09 СЗ 2 35 км н/о +6.8 +2.1 72 +5 +5 1031.0 967.8
22 19.09 СЗ 2 35 км н/о +5.7 +2.2 78 +3 +3 1031.2 967.7
23 19.09 З 2 30 км н/о +4.6 +2.5 86 +2 +2 1031.4 967.7
00 20.09 З 2 30 км н/о +3.7 +2.3 91 +1 +1 1031.6 967.6
01 20.09 С 2 24 км н/о +2.8 +2.0 94 -1 -1 1031.2 967.1
02 20.09 З 2 30 км н/о +2.6 +1.9 95 -1 -1 1031.3 967.1
03 20.09 СЗ 1 22 км н/о +2.1 +1.5 96 0 0 1031.3 967.0
04 20.09 ЮЗ 1 28 км н/о +2.6 +1.9 95 +1 +1 1031.0 966.8
05 20.09 15 км н/о +1.6 +1.1 96 1031.3 966.9
06 20.09 З 1 40 км 9/0
[Ci fib]
+3.2 +2.2 93 +2 +2 1031.1 967.1 +1.4
07 20.09 нст 1 55 км 9/1 400 м
[Cu hum Ci fib]
+6.3 +3.6 83 +5 +7 1030.7 967.4
08 20.09 60 км 8/1 600 м
[Cu hum Ci fib]
+9.8 +4.0 67 1030.3 967.8
09 20.09 нст 2 60 км 8/3 1080 м
[Cu hum Ci fib]
+11.4 +1.4 50 +11 +15 1029.9 967.7
10 20.09 60 км 8/3 1300 м
[Sc diur, vesp Ci fib]
+12.1 +1.4 48 1029.4 967.4
11 20.09 60 км 8/1 1380 м
[Sc diur, vesp Ci fib]
+12.9 +1.4 45 1028.7 966.9
12 20.09 нст 2 60 км 8/1 1380 м
[Sc diur, vesp Ci fib]
+14.7 +2.3 43 +15 +21 1027.8 966.4
13 20.09 60 км 8/1 1500 м
[Sc diur, vesp Ci fib]
+15.0 +1.7 41 1027.6 966.3
14 20.09 60 км 8/3 1500 м
[Sc diur, vesp Ci fib]
+14.8 +2.2 43 1027.1 965.8
15 20.09 нст 2 65 км 8/1 1500 м
[Sc diur, vesp Ci fib]
+15.4 +1.6 39 +15 +17 1026.5 965.3

 

Местоположение метеостанции Коцеловице (Чехия): широта 49.47 долгота 13.83 высота над уровнем моря 522 м.

В архиве по умолчанию представлена погода в Коцеловице за последнюю неделю. Архивные данные за месяц целиком и за предыдущие месяцы, начиная с января 2011 года, Вы можете получить, выбрав интересующий диапазон дат из раскрывающегося списка и нажав кнопку "Ввод!".


*Определитесь, кто Вы:
робот инопланетянин человек

Внимание! Время в таблицах - всемирное. Для получения местного времени необходимо прибавить поправку, которая равна 1 ч.

Смотрите также архив погоды в соседних городах и на ближайших метеорологических станциях:

Погода в Пльзень-Микулке (Чехия) (47 км)
Погода в Чуранове (Чехия) (47 км)
Погода в Темелине (Чехия) (47 км)
Погода на Гросер-Арбер (Германия) (64 км)
Погода в Цвизеле (Германия) (66 км)
Погода в Ческе-Будеёвице (Чехия) (74 км)
Погода в Праге-Либус (Чехия) (76 км)
Погода в Праге (Чехия) (76 км)
Погода в Вальдмюнхене (Германия) (84 км)
Погода в Пршимде (Чехия) (87 км)

Пояснения к столбцам:

Ветер - указаны скорость ветра в м/с - средняя за 10 мин, порывы в срок и между сроками (в фигурных скобках) и направление, откуда дует ветер: С - северный, СВ - северо-восточный, В - восточный, ЮВ - юго-восточный, Ю - южный, ЮЗ - юго-западный, З - западный, СЗ - северо-западный.
Видимость - горизонтальная дальность видимости в метрах или километрах. При видимости от 1 до 10 км при отсутствии осадков обычно наблюдается дымка, при ухудшении видимости до 1 км и менее - туман. В сухую погоду видимость может ухудшаться дымом, пылью или мглою.
Явления - указаны атмосферные явления, наблюдавшиеся в срок или в последний час перед сроком; фигурными скобками обозначены явления, наблюдавшиеся между сроками (за 1-3 часа до срока); квадратными скобками обозначены град или гололедные отложения с указанием их диаметра в мм.
Облачность - указаны через наклонную черту общая и нижняя облачность в баллах и высота нижней границы облаков в метрах; квадратными скобками обозначены формы облаков: Ci - перистые, Cs - перисто-слоистые, Cc - перисто-кучевые, Ac - высококучевые, As - высокослоистые, Sc - слоисто-кучевые, Ns - слоисто-дождевые, Cu - кучевые, Cb - кучево-дождевые. Подробнее классификацию облаков см. в Атласе облаков (PDF).
T - Температура воздуха - температура, измеренная на высоте 2 м над землей.
Td - Температура точки росы - температура, при понижении до которой содержащийся в воздухе водяной пар достигнет насыщения.
f - Относительная влажность воздуха - влажноcть воздуха, измеренная на высоте 2 м над землей.
Te - Эффективная температура - температура, которую ощущает одетый по сезону человек в тени. Характеристика душности погоды. При расчете учитывается влияние влажности воздуха и скорости ветра на теплоощущения человека.
Tes - Эффективная температура на солнце - температура, которую ощущает человек, с поправкой на солнечный нагрев. Характеристика знойности погоды. Зависит от высоты солнца над горизонтом, облачности и скорости ветра. Ночью, в пасмурную погоду, а также при ветре 12 м/с и более поправка равна нулю.
P - Атмосферное давление - приведенное к уровню моря атмосферное давление.
Po - Атмосферное давление - измеренное на уровне метеостанции атмосферное давление.
Tmin - Минимальная температура - минимум температуры воздуха на высоте 2 м над землей.
Tmax - Максимальная температура - максимум температуры воздуха на высоте 2 м над землей.
R - Количество осадков - Количество выпавших осадков за период времени, мм. При наведении курсора мыши на число - период времени, за который выпало указанное количество осадков.
R24 - Количество осадков - Количество выпавших осадков за 24 часа, мм.
S - Снежный покров - Высота снежного покрова, см. При наведении курсора мыши на число - состояние снежного покрова и степень покрытия местности в баллах.